Retour au catalogue

NIMBUS 2 DEB

ActifLEO
NORAD 40645·DEBRIS·🇺🇸 United States

Lancé May 15, 1966 depuis Vandenberg Space Force Base

Loading…

Prochains Passages (prochaines 24 heures)

TLE

VieillissantSource: Space-Track

Époque: Sep 11, 2026, 15:15 UTC

1 40645U 66040BJ  26254.63581075 -.00000126  00000-0 -12970-3 0  9992
2 40645 100.4127 138.4875 0049865 345.1015  14.8643 13.45376557554537

Suivez NIMBUS 2 DEB en temps réel avec AllMySat

Download on the App Store